| time (UTC) | temp C | wind direction | speed KPH | gust KPH | rain 1hr cm | rain 24hr cm | rain mn cm | humidity % | barometer mb |
| 20260906223025 | 27 | 335 | 16.1 | 27.4 | 0.00 | 0.00 | 0.00 | 48 | 1011.2 |
| 20260906221534 | 27 | 356 | 19.3 | 25.7 | 0.00 | 0.00 | 0.00 | 48 | 1011.4 |
| 20260906220007 | 27 | 349 | 17.7 | 25.7 | 0.00 | 0.00 | 0.00 | 46 | 1011.6 |
| 20260906214515 | 27 | 338 | 16.1 | 25.7 | 0.00 | 0.00 | 0.00 | 47 | 1011.8 |
| 20260906213024 | 27 | 353 | 17.7 | 24.1 | 0.00 | 0.00 | 0.00 | 47 | 1011.8 |
| 20260906211528 | 27 | 1 | 16.1 | 25.7 | 0.00 | 0.00 | 0.00 | 47 | 1011.9 |
| 20260906210037 | 27 | 343 | 11.3 | 20.9 | 0.00 | 0.00 | 0.00 | 48 | 1012.2 |
| 20260906204514 | 26 | 338 | 14.5 | 22.5 | 0.00 | 0.00 | 0.00 | 48 | 1012.5 |
| 20260906203018 | 26 | 338 | 12.9 | 22.5 | 0.00 | 0.00 | 0.00 | 47 | 1012.8 |
| 20260906201554 | 26 | 338 | 12.9 | 19.3 | 0.00 | 0.00 | 0.00 | 47 | 1013.0 |
| 20260906200029 | 26 | 1 | 12.9 | 19.3 | 0.00 | 0.00 | 0.00 | 47 | 1013.5 |
| 20260906194510 | 26 | 1 | 11.3 | 22.5 | 0.00 | 0.00 | 0.00 | 46 | 1013.8 |
| 20260906193015 | 26 | 344 | 6.4 | 16.1 | 0.00 | 0.00 | 0.00 | 45 | 1014.0 |
| 20260906191523 | 25 | 359 | 9.7 | 14.5 | 0.00 | 0.00 | 0.00 | 43 | 1014.3 |
| 20260906190034 | 25 | 3 | 6.4 | 14.5 | 0.00 | 0.00 | 0.00 | 46 | 1014.4 |
| 20260906184532 | 25 | 9 | 11.3 | 16.1 | 0.00 | 0.00 | 0.00 | 45 | 1014.8 |
| 20260906183017 | 24 | 359 | 9.7 | 17.7 | 0.00 | 0.00 | 0.00 | 46 | 1015.1 |
| 20260906181536 | 23 | 339 | 9.7 | 19.3 | 0.00 | 0.00 | 0.00 | 51 | 1015.4 |
| 20260906180027 | 23 | 360 | 9.7 | 16.1 | 0.00 | 0.00 | 0.00 | 53 | 1015.7 |
| 20260906174534 | 22 | 354 | 9.7 | 14.5 | 0.00 | 0.00 | 0.00 | 53 | 1016.0 |
| 20260906173032 | 22 | 4 | 11.3 | 14.5 | 0.00 | 0.00 | 0.00 | 54 | 1016.3 |
| 20260906171516 | 22 | 358 | 8.0 | 14.5 | 0.00 | 0.00 | 0.00 | 54 | 1016.4 |
| 20260906170025 | 21 | 345 | 8.0 | 14.5 | 0.00 | 0.00 | 0.00 | 56 | 1016.6 |
| 20260906164531 | 21 | 1 | 8.0 | 16.1 | 0.00 | 0.00 | 0.00 | 57 | 1016.7 |
| 20260906163044 | 20 | 15 | 11.3 | 16.1 | 0.00 | 0.00 | 0.00 | 58 | 1016.7 |
| 20260906161536 | 20 | 1 | 8.0 | 12.9 | 0.00 | 0.00 | 0.00 | 59 | 1016.5 |
| 20260906160022 | 19 | 360 | 6.4 | 9.7 | 0.00 | 0.00 | 0.00 | 60 | 1016.6 |
| 20260906154504 | 19 | 1 | 4.8 | 9.7 | 0.00 | 0.00 | 0.00 | 60 | 1016.7 |
| 20260906153009 | 18 | 49 | 4.8 | 6.4 | 0.00 | 0.00 | 0.00 | 60 | 1016.8 |
| 20260906151512 | 18 | 80 | 0.0 | 6.4 | 0.00 | 0.00 | 0.00 | 59 | 1016.9 |
| 20260906150025 | 17 | 58 | 1.6 | 4.8 | 0.00 | 0.00 | 0.00 | 59 | 1017.1 |
| 20260906144504 | 17 | 70 | 0.0 | 1.6 | 0.00 | 0.00 | 0.00 | 60 | 1017.3 |
| 20260906143004 | 16 | 156 | 0.0 | 6.4 | 0.00 | 0.00 | 0.00 | 63 | 1017.4 |
| 20260906141512 | 16 | 158 | 3.2 | 6.4 | 0.00 | 0.00 | 0.00 | 63 | 1017.3 |
| 20260906140019 | 15 | 168 | 1.6 | 4.8 | 0.00 | 0.00 | 0.00 | 64 | 1017.2 |
| 20260906134523 | 15 | 181 | 3.2 | 4.8 | 0.00 | 0.00 | 0.00 | 66 | 1017.3 |
| 20260906133005 | 14 | 307 | 0.0 | 3.2 | 0.00 | 0.00 | 0.00 | 68 | 1017.0 |
| 20260906131505 | 12 | 319 | 0.0 | 0.0 | 0.00 | 0.00 | 0.00 | 73 | 1017.1 |
| 20260906130018 | 12 | 340 | 0.0 | 0.0 | 0.00 | 0.00 | 0.00 | 73 | 1017.0 |
| 20260906124523 | 12 | 340 | 0.0 | 0.0 | 0.00 | 0.00 | 0.00 | 73 | 1017.1 |
| 20260906123036 | 12 | 340 | 0.0 | 0.0 | 0.00 | 0.00 | 0.00 | 72 | 1016.8 |
| 20260906121508 | 13 | 340 | 0.0 | 0.0 | 0.00 | 0.00 | 0.00 | 68 | 1017.0 |
| 20260906120010 | 15 | 340 | 1.6 | 8.0 | 0.00 | 0.00 | 0.00 | 64 | 1016.9 |
| 20260906114523 | 15 | 356 | 1.6 | 8.0 | 0.00 | 0.00 | 0.00 | 64 | 1016.9 |
| 20260906113027 | 15 | 352 | 3.2 | 8.0 | 0.00 | 0.00 | 0.00 | 64 | 1017.0 |
| 20260906111530 | 15 | 360 | 8.0 | 11.3 | 0.00 | 0.00 | 0.00 | 62 | 1017.0 |
| 20260906110010 | 16 | 355 | 9.7 | 14.5 | 0.00 | 0.00 | 0.00 | 62 | 1016.7 |
| 20260906104515 | 15 | 351 | 9.7 | 14.5 | 0.00 | 0.00 | 0.00 | 63 | 1016.7 |
| 20260906103023 | 15 | 359 | 3.2 | 8.0 | 0.00 | 0.00 | 0.00 | 61 | 1016.7 |
| 20260906101527 | 16 | 353 | 8.0 | 14.5 | 0.00 | 0.00 | 0.00 | 60 | 1016.5 |
| 20260906100038 | 16 | 359 | 9.7 | 16.1 | 0.00 | 0.00 | 0.00 | 61 | 1016.3 |
| 20260906094513 | 15 | 351 | 4.8 | 6.4 | 0.00 | 0.00 | 0.00 | 62 | 1016.8 |
| 20260906093033 | 16 | 340 | 1.6 | 9.7 | 0.00 | 0.00 | 0.00 | 60 | 1016.7 |
| 20260906091529 | 16 | 13 | 9.7 | 11.3 | 0.00 | 0.00 | 0.00 | 60 | 1016.7 |
| 20260906090029 | 16 | 346 | 3.2 | 16.1 | 0.00 | 0.00 | 0.00 | 59 | 1016.9 |
| 20260906084532 | 16 | 4 | 12.9 | 16.1 | 0.00 | 0.00 | 0.00 | 57 | 1016.4 |
| 20260906083021 | 17 | 1 | 8.0 | 12.9 | 0.00 | 0.00 | 0.00 | 55 | 1016.7 |
| 20260906081541 | 18 | 4 | 11.3 | 22.5 | 0.00 | 0.00 | 0.00 | 50 | 1016.5 |
| 20260906080010 | 19 | 323 | 9.7 | 29.0 | 0.00 | 0.00 | 0.00 | 49 | 1016.9 |
| 20260906074510 | 19 | 340 | 16.1 | 22.5 | 0.00 | 0.00 | 0.00 | 48 | 1016.6 |
| 20260906073031 | 19 | 352 | 17.7 | 24.1 | 0.00 | 0.00 | 0.00 | 48 | 1016.4 |
| 20260906071512 | 19 | 334 | 12.9 | 19.3 | 0.00 | 0.00 | 0.00 | 48 | 1016.5 |
| 20260906070014 | 18 | 324 | 9.7 | 17.7 | 0.00 | 0.00 | 0.00 | 48 | 1016.3 |
| 20260906064504 | 18 | 314 | 9.7 | 17.7 | 0.00 | 0.00 | 0.00 | 48 | 1016.4 |
| 20260906063013 | 19 | 349 | 8.0 | 20.9 | 0.00 | 0.00 | 0.00 | 47 | 1016.6 |
| 20260906061515 | 19 | 345 | 14.5 | 17.7 | 0.00 | 0.00 | 0.00 | 47 | 1016.5 |
| 20260906060015 | 20 | 343 | 12.9 | 20.9 | 0.00 | 0.00 | 0.00 | 47 | 1016.6 |
| 20260906054521 | 19 | 348 | 11.3 | 17.7 | 0.00 | 0.00 | 0.00 | 47 | 1016.6 |
| 20260906053009 | 20 | 342 | 11.3 | 19.3 | 0.00 | 0.00 | 0.00 | 46 | 1016.7 |
| 20260906051520 | 20 | 355 | 12.9 | 17.7 | 0.00 | 0.00 | 0.00 | 45 | 1016.6 |
| 20260906050017 | 20 | 340 | 9.7 | 14.5 | 0.00 | 0.00 | 0.00 | 44 | 1016.6 |
| 20260906044518 | 21 | 346 | 14.5 | 20.9 | 0.00 | 0.00 | 0.00 | 43 | 1016.6 |
| 20260906043024 | 21 | 340 | 12.9 | 16.1 | 0.00 | 0.00 | 0.00 | 42 | 1016.6 |
| 20260906041512 | 22 | 354 | 11.3 | 22.5 | 0.00 | 0.00 | 0.00 | 41 | 1016.6 |
| 20260906040020 | 22 | 348 | 17.7 | 22.5 | 0.00 | 0.00 | 0.00 | 41 | 1016.4 |
| 20260906034525 | 22 | 359 | 12.9 | 20.9 | 0.00 | 0.00 | 0.00 | 40 | 1016.5 |
| 20260906033020 | 22 | 338 | 11.3 | 22.5 | 0.00 | 0.00 | 0.00 | 39 | 1016.4 |
| 20260906031518 | 22 | 348 | 17.7 | 24.1 | 0.00 | 0.00 | 0.00 | 38 | 1016.3 |
| 20260906030016 | 23 | 340 | 16.1 | 25.7 | 0.00 | 0.00 | 0.00 | 37 | 1016.1 |
| 20260906024525 | 23 | 349 | 20.9 | 27.4 | 0.00 | 0.00 | 0.00 | 37 | 1015.9 |
| 20260906023024 | 23 | 342 | 16.1 | 25.7 | 0.00 | 0.00 | 0.00 | 37 | 1015.7 |
| 20260906021524 | 23 | 334 | 19.3 | 25.7 | 0.00 | 0.00 | 0.00 | 36 | 1015.6 |
| 20260906020028 | 23 | 358 | 19.3 | 24.1 | 0.00 | 0.00 | 0.00 | 37 | 1015.3 |
| 20260906014528 | 23 | 348 | 20.9 | 24.1 | 0.00 | 0.00 | 0.00 | 36 | 1015.3 |
| 20260906013024 | 24 | 359 | 14.5 | 25.7 | 0.00 | 0.00 | 0.00 | 35 | 1015.4 |
| 20260906011526 | 24 | 333 | 14.5 | 24.1 | 0.00 | 0.00 | 0.00 | 34 | 1015.4 |
| 20260906010024 | 24 | 343 | 14.5 | 20.9 | 0.00 | 0.00 | 0.00 | 35 | 1015.4 |
| 20260906004517 | 25 | 346 | 14.5 | 20.9 | 0.00 | 0.00 | 0.00 | 33 | 1015.3 |
| 20260906003021 | 25 | 1 | 12.9 | 22.5 | 0.00 | 0.00 | 0.00 | 35 | 1015.2 |
| 20260906001528 | 26 | 359 | 12.9 | 25.7 | 0.00 | 0.00 | 0.00 | 34 | 1015.1 |
| 20260906000026 | 26 | 342 | 17.7 | 25.7 | 0.00 | 0.00 | 0.00 | 32 | 1015.2 |
| 20260905234526 | 26 | 347 | 16.1 | 27.4 | 0.00 | 0.00 | 0.00 | 32 | 1015.2 |
| 20260905233020 | 26 | 350 | 19.3 | 25.7 | 0.00 | 0.00 | 0.00 | 31 | 1015.3 |
| 20260905231527 | 27 | 360 | 19.3 | 25.7 | 0.00 | 0.00 | 0.00 | 31 | 1015.2 |
| 20260905230029 | 27 | 356 | 19.3 | 25.7 | 0.00 | 0.00 | 0.00 | 31 | 1015.2 |
| 20260905224534 | 27 | 347 | 19.3 | 27.4 | 0.00 | 0.00 | 0.00 | 31 | 1015.3 |